JIK weather

Ikaria Airport
Ikaria Island, Samos, Greece

Public forecast

Using degrees Celsius for public forecast. Weather courtesy of forecast.io.

METAR (pilot weather report)

Closest report is Samos Airport, 26.8 nm (49.7 km) E. Retrieved 2018/09/26 04:20 UTC (18 minutes ago):

LGSM 260420Z 01015KT 330V030 CAVOK 17/14 Q1016

TAF (pilot weather forecast)

Forecast is more than 12 hours old.

Closest forecast is Samos Airport, 26.8 nm (49.7 km) E. Retrieved 2012/09/21 03:06 UTC (6 years ago):

TAF LGSM 210200Z 2103/2115 VRB05KT 9999 FEW020 BECMG 2104/2106 30012KT